Date,TemperatureHighF,TemperatureAvgF,TemperatureLowF,DewpointHighF,DewpointAvgF,DewpointLowF,HumidityHigh,HumidityAvg,HumidityLow,PressureMaxIn,PressureMinIn,WindSpeedMaxMPH,WindSpeedAvgMPH,GustSpeedMaxMPH,PrecipitationSumIn
2013-3-1,57,49,45,48,45,43,93,86,67,29.86,29.68,13,2,27,0.22
2013-3-2,59,52,44,46,43,38,84,70,49,30.14,29.85,15,6,28,0.00
2013-3-3,62,51,42,49,43,36,88,74,51,30.13,30.00,5,1,10,0.00
2013-3-4,62,56,51,54,51,47,90,84,72,30.01,29.74,6,2,10,0.03
2013-3-5,67,59,55,55,53,52,90,81,62,29.73,29.42,4,1,10,0.11
2013-3-6,67,58,55,55,53,50,92,85,56,29.59,29.28,10,4,19,0.02
2013-3-7,72,62,55,56,53,49,92,75,48,29.75,29.58,11,5,20,0.00
2013-3-8,70,63,56,56,50,44,92,64,41,29.80,29.62,13,6,22,0.00
2013-3-9,70,61,54,54,49,40,94,69,36,29.78,29.70,14,6,24,0.00
2013-3-10,64,58,53,53,47,41,92,70,45,29.73,29.64,13,5,26,0.00
2013-3-11,64,58,52,47,44,40,76,60,43,29.72,29.64,11,5,18,0.00
2013-3-12,63,57,51,44,41,37,75,56,40,29.66,29.55,13,5,27,0.00
2013-3-13,59,49,41,50,44,38,92,83,61,29.64,29.36,18,3,34,1.51
2013-3-14,52,48,42,40,36,29,91,65,43,29.85,29.64,13,5,26,0.10
2013-3-15,57,50,42,38,34,29,75,55,36,30.13,29.85,7,3,14,0.00
2013-3-16,47,41,39,38,32,28,77,70,58,30.11,30.05,2,0,4,0.00
2013-3-17,57,57,56,54,54,54,91,90,89,29.54,29.50,8,5,15,0.31
2013-3-18,64,57,49,54,43,30,93,62,30,29.81,29.46,9,4,20,0.13
2013-3-19,67,55,45,53,48,41,92,78,55,29.81,29.60,6,1,9,0.00
2013-3-20,58,54,49,51,48,44,90,81,63,30.14,29.57,9,3,20,0.01
2013-3-21,64,55,48,53,49,44,91,79,63,30.15,29.99,8,4,16,0.00
2013-3-22,70,57,46,53,48,42,92,76,44,29.99,29.75,7,3,14,0.01
2013-3-23,66,58,54,54,51,49,93,78,55,29.77,29.61,8,3,14,0.00
2013-3-24,66,58,52,52,48,44,89,72,47,29.66,29.52,9,2,14,0.00
2013-3-25,66,60,53,50,45,40,83,59,39,29.79,29.64,11,6,23,0.00
2013-3-26,62,62,60,49,48,48,65,61,60,29.66,29.58,10,8,26,0.00
2013-3-27,68,61,56,55,53,49,92,77,52,29.72,29.57,11,4,18,0.00
2013-3-28,70,62,56,58,54,52,93,78,56,29.88,29.66,8,4,19,0.00
2013-3-29,70,61,54,55,52,50,92,75,49,29.87,29.72,10,4,22,0.00
2013-3-30,68,65,57,54,46,40,89,51,39,29.82,29.62,16,11,33,0.00
2013-3-31,70,63,57,53,44,38,85,52,32,29.81,29.66,9,5,20,0.00